Regional Weather Roundup
Issued by NWS

Home | Current Version | Previous Version | Graphics & Text | Print | Product List | Glossary On
Versions: 1 2 3 4 5 6 7 8 9 10 11 12 13 14 15 16 17 18 19 20 21 22 23 24 25 26 27 28 29 30 31 32 33 34 35 36 37 38 39 40 41 42 43 44 45 46 47 48 49 50
000
ASUS43 KOAX 270602
RWRNE

WEATHER ROUNDUP FOR NEBRASKA
NATIONAL WEATHER SERVICE OMAHA NE
1200 AM CST FRI FEB 27 2015

NOTES: SATELLITE DATA IS BEING USED TO AUGMENT CLOUD COVER ABOVE
       12000 FEET.
       "FAIR" INDICATES FEW OR NO CLOUDS BELOW 12,000 FEET WITH NO
       SIGNIFICANT WEATHER AND/OR OBSTRUCTIONS TO VISIBILITY.

  * THESE STATIONS DO NOT REPORT WEATHER SUCH AS RAIN...SNOW OR FOG.

NEZ001>004-019>022-054>056-270700-
NEBRASKA PANHANDLE

CITY           SKY/WX    TMP DP  RH WIND       PRES   REMARKS
SCOTTSBLUFF    CLOUDY     9   0  67 E13       30.28F WCI  -7
6HR MIN TEMP:   7; 6HR MAX TEMP:  15;

ALLIANCE       PTCLDY     1  -4  79 CALM      30.29F
6HR MIN TEMP:   0; 6HR MAX TEMP:  11;

CHADRON        CLEAR     -6 -11  79 SW7       30.36F WCI -20
6HR MIN TEMP:  -7; 6HR MAX TEMP:  13;

SIDNEY         CLOUDY     8   0  69 E12       30.26F WCI  -7
6HR MIN TEMP:   8; 6HR MAX TEMP:  15; 6HR PCP: TRACE;

$$

NEZ057>060-069>072-079>082-270700-
SOUTHWEST NEBRASKA

CITY           SKY/WX    TMP DP  RH WIND       PRES   REMARKS
NORTH PLATTE   CLEAR     -1  -8  72 E6        30.44  WCI -13
6HR MIN TEMP:  -1; 6HR MAX TEMP:  17;

IMPERIAL         N/A      8  -4  58 E9        30.38S WCI  -5
6HR MIN TEMP:   7; 6HR MAX TEMP:  19;

MCCOOK         PTCLDY     7  -3  64 NE6       30.45S WCI  -3
6HR MIN TEMP:   7; 6HR MAX TEMP:  23;

$$

NEZ005>010-023>029-035>040-094-270700-
NORTH CENTRAL NEBRASKA

CITY           SKY/WX    TMP DP  RH WIND       PRES   REMARKS
VALENTINE      CLEAR     -5  -9  83 SW3       30.44
6HR MIN TEMP:  -5; 6HR MAX TEMP:  10;

AINSWORTH      CLEAR     -2  -7  80 W3        30.44S
BROKEN BOW     CLEAR     -6 -11  79 CALM      30.46S
6HR MIN TEMP:  -6; 6HR MAX TEMP:  14;

ORD            CLEAR     -2  -9  72 NW5       30.50S WCI -12
6HR MIN TEMP:  -4; 6HR MAX TEMP:  13;

$$

NEZ041-046>049-061>064-073>077-083>087-270700-
SOUTH CENTRAL NEBRASKA

CITY           SKY/WX    TMP DP  RH WIND       PRES   REMARKS
GRAND ISLAND   CLEAR      0  -6  76 W5        30.53S WCI -10
6HR MIN TEMP:   0; 6HR MAX TEMP:  13;

AURORA         CLEAR     -1  -7  74 NW3       30.53R
HASTINGS       CLEAR      0  -6  76 CALM      30.51S
6HR MIN TEMP:   0; 6HR MAX TEMP:  15;

HEBRON         CLEAR      3  -2  80 CALM      30.57R
KEARNEY *      CLEAR      1  -6  71 N3        30.50S
YORK             N/A      1  -2  85 N3        30.53S
$$

NEZ011>018-030>034-042>045-270700-
NORTHEAST NEBRASKA

CITY           SKY/WX    TMP DP  RH WIND       PRES   REMARKS
NORFOLK        CLEAR      0  -6  76 N6        30.54S WCI -12
6HR MIN TEMP:  -1; 6HR MAX TEMP:  10;

ALBION         CLEAR     -3  -7  80 CALM      30.53S
BLAIR          CLEAR      3  -4  70 N7        30.55S WCI  -9
COLUMBUS *     CLEAR      0  -9  65 NW5       30.56S WCI -10
FREMONT        CLEAR      2  -4  75 CALM      30.58S
TEKAMAH        CLEAR      0  -7  72 NW7       30.60S WCI -13
6HR MIN TEMP:  -1; 6HR MAX TEMP:  10;

$$

NEZ050>053-065>068-078-088>093-270700-
SOUTHEAST NEBRASKA

CITY           SKY/WX    TMP DP  RH WIND       PRES   REMARKS
LINCOLN        CLEAR      1  -4  79 N6        30.59S WCI -10
6HR MIN TEMP:  -1; 6HR MAX TEMP:  12;

OMAHA EPPLEY   CLEAR      2  -3  80 N3        30.59S
6HR MIN TEMP:   0; 6HR MAX TEMP:   9;

BEATRICE       CLEAR      0  -4  82 CALM      30.57S
FALLS CITY     CLEAR      4  -4  69 CALM      30.60R
6HR MIN TEMP:   3; 6HR MAX TEMP:  12;

NEBRASKA CITY  CLEAR      4  -4  70 CALM      30.58R
$$

NEZ044-045-051>053-067-270700-
OMAHA AREA

CITY           SKY/WX    TMP DP  RH WIND       PRES   REMARKS
OMAHA EPPLEY   CLEAR      2  -3  80 N3        30.59S
6HR MIN TEMP:   0; 6HR MAX TEMP:   9;

BLAIR          CLEAR      3  -4  70 N7        30.55S WCI  -9
FREMONT        CLEAR      2  -4  75 CALM      30.58S
WAHOO          FAIR       0  -6  78 NW6       30.58S WCI -12
$$



USA.gov is the U.S. government's official web portal to all federal, state and local government web resources and services.